Flag for El Salvador Weather past 2 weeks in San Salvador, El Salvador

Now
72 °F

Clear.


Feels Like: 67 °F
Forecast: 70 / 86 °F
Wind: 2 mph from North

Location: San Salvador / Ilopango


UV Index: 10 (Very high)

Visibility: 4 mi


Pressure: 29.98 "Hg

Humidity: 94%

Dew point: 70 °F

Location of San SalvadorLocation

Historic Weather in San Salvador

°F

San Salvador temperature yesterday

Maximum temperature yesterday: 88 °F (at 1:50 PM)
Minimum temperature yesterday: 70 °F (at 6:50 AM)
Average temperature yesterday: 79 °F

Past Weeks' High & Low Weather Summary

 TemperatureHumidityPressure
High95 °F (Apr 8, 12:50 PM)100% (Apr 4, 5:50 AM)30.09 "Hg (Apr 4, 5:50 AM)
Low64 °F (Apr 15, 5:50 AM)36% (Apr 9, 1:50 PM)29.86 "Hg (Apr 5, 2:50 PM)
Average80 °F70%29.96 "Hg
* Reported Apr 3 5:50 AM — Apr 18 5:50 AM, San Salvador, Weather by CustomWeather, © 2014

Note: Actual official high and low records may vary slightly from our data, if they occured in-between our weather recording intervals... More about our weather records

Advertising

Historic Weather Conditions — Data for Previous 24 hours

 ConditionsComfort  
Time TempWeatherWind HumidityBarometerVisibility
5:50 AM
Apr 18
72 °FSunny.No wind94%29.98 "Hg10 mi
11:50 PM
Apr 17
75 °FClear.2 mph94%29.95 "Hg10 mi
9:50 PM77 °FClear.5 mph89%29.95 "Hg10 mi
8:50 PM77 °FClear.No wind89%29.95 "Hg10 mi
7:50 PM77 °FClear.2 mph89%29.92 "Hg10 mi
6:50 PM77 °FClear.3 mph89%29.92 "Hg10 mi
5:50 PM79 °FSunny.5 mph84%29.92 "Hg10 mi
4:50 PM81 °FPassing clouds.7 mph79%29.89 "Hg5 mi
3:50 PM84 °FPassing clouds.3 mph70%29.92 "HgN/A
2:50 PM82 °FPassing clouds.8 mph74%29.92 "HgN/A
1:50 PM88 °FScattered clouds.7 mph59%29.95 "HgN/A
12:50 PM86 °FPassing clouds.7 mph62%29.98 "HgN/A
11:50 AM84 °FPassing clouds.No wind70%30.01 "HgN/A
10:50 AM82 °FPassing clouds.3 mph70%30.01 "HgN/A
9:50 AM77 °FPassing clouds.6 mph83%30.04 "HgN/A
8:50 AM72 °FPassing clouds.3 mph94%30.01 "HgN/A
7:50 AM70 °FPassing clouds.No wind100%30.01 "HgN/A
Weather by CustomWeather, © 2014

See weather overview